COSMOS 1275 DEB, 17638

Orbit data source: Space-Track

COSMOS 1275 DEB, 17638 is space debris in LEO originally from a launch on Thu, 04 Jun 1981 UTC launched from the Plesetsk Missile And Space Complex (PKMTR). Debris objects in space refer to the collection of defunct objects orbiting the Earth. Examples of debris include non-operational satellites, rocket bodies, and fragments generated from explosions, collisions, or faulty payload assembly.

Loading next visibility...
Identifier
17638, 1981-053LH
Orbit
LEO
Country
Flag of CISCIS
Related business
Manufacturer
Unknown
Mission
Spacecraft
Bus & Motor
Unknown
Mass
Unknown
Launch date (UTC)
1981-06-04 (45 years ago)
Launch vehicle
Unknown
Launch site
Plesetsk Missile And Space Complex (PKMTR)
Object type
Payload
Rocket body
Debris
Shape & HBR
Unknown shape, 0.1 m
Radar Cross Section
Small (<0.1 m²)

Expand to show TLE details & history
Last TLE update: 8 hours ago

TLE from 8 hours ago
0 COSMOS 1275 DEB
1 17638U 81053LH  26034.28076452  .00001308  00000-0  13401-2 0  9994
2 17638  82.9915  26.8841 0103401 242.0390 179.5199 13.73410336 26548
Epoch: 2026-02-03T06:44Z
TLE epoch observation values (Epoch: 2026-02-03T06:44:18.054Z)
Latitude
60.87862°
Longitude
165.02728°
Altitude
1,073.916 km
Speed
7.283 km/s
True Right ascension
02h 38m 15s
True Declination
60° 44' 18"
Sunlit
Object was in daylight at epoch
Visualization orbit readout
Latitude
Unknown
Longitude
Unknown
Altitude
Unknown
Speed
Unknown
Apparent Right ascension
Unknown
Apparent Declination
Unknown
Sunlit
N/A
Visualization observer readout
Local Sidereal Time
16:50:03
Azimuth
Unknown
Elevation
Unknown
Doppler factor
Unknown
Orbital elements
Apogee altitude
1,060.632 km
Perigee altitude
908.371 km
Semi-major axis
7,362.639 km
Eccentricity
0.01034
Inclination
82.9915°
RAAN
26.8841°
Arg. of periapsis
242.039°
True anomaly
179.5297°
Mean anomaly
179.5199°
Eccentric anomaly
179.52481°
Mean motion
3.43552 °/min
Orbital period
104.79 mins
BSTAR
0.0013401
Loading maneuver chart data...
Computing Atmospheric mass density...
Loading historical data...
Loading historical data...
Loading historical data...
Loading historical data...
Loading historical data...
Loading historical data...
Loading historical data...

Documentation

Showing up to 5 results
|